EW4739 Weather Reports


Display with metric or nautical units.
time (UTC)temp
F
wind
direction
speed
MPH
gust
MPH
rain 1hr
in
rain 24hr
in
rain mn
in
humidity
%
barometer
mb
20210925061609 61 30 0.0 0.0 0.00 0.00 0.00 100 1019.6
20210925060022 61 30 0.0 0.0 0.00 0.00 0.00 100 1019.6
20210925054518 61 30 0.0 0.0 0.00 0.00 0.00 100 1019.6
20210925053004 61 30 0.0 0.0 0.00 0.00 0.00 100 1019.6
20210925051648 61 30 0.0 0.0 0.00 0.00 0.00 2 1019.4
20210925050142 62 30 0.0 0.0 0.00 0.00 0.00 17 1019.4
20210925044647 62 30 0.0 0.0 0.00 0.00 0.00 20 1019.4
20210925043020 63 30 0.0 0.0 0.00 0.00 0.00 32 1019.3
20210925041525 63 30 0.0 0.0 0.00 0.00 0.00 37 1019.3
20210925040100 64 30 0.0 0.0 0.00 0.00 0.00 44 1019.3
20210925034511 65 30 0.0 0.0 0.00 0.00 0.00 50 1019.1
20210925033025 65 30 0.0 0.0 0.00 0.00 0.00 51 1019.1
20210925031511 66 30 0.0 0.0 0.00 0.00 0.00 52 1019.0
20210925030047 66 30 0.0 0.0 0.00 0.00 0.00 53 1018.9
20210925024611 66 30 0.0 0.0 0.00 0.00 0.00 54 1018.7
20210925023100 66 30 0.0 0.0 0.00 0.00 0.00 55 1018.6
20210925021543 67 27 0.0 0.0 0.00 0.00 0.00 55 1018.4
20210925020054 67 27 0.0 0.0 0.00 0.00 0.00 54 1018.2
20210925014521 68 27 0.0 0.0 0.00 0.00 0.00 54 1018.0
20210925013140 69 27 0.0 0.0 0.00 0.00 0.00 54 1017.8
20210925011612 70 27 0.0 0.0 0.00 0.00 0.00 54 1017.8
20210925010008 72 27 0.0 0.0 0.00 0.00 0.00 54 1017.7
20210925004505 73 27 0.0 0.0 0.00 0.00 0.00 56 1017.7
20210925003255 75 27 0.0 0.0 0.00 0.00 0.00 54 1017.7
20210925001619 77 27 0.0 0.0 0.00 0.00 0.00 51 1017.7
20210925000142 80 27 0.0 0.0 0.00 0.00 0.00 47 1017.7
20210924234609 81 27 0.0 0.0 0.00 0.00 0.00 46 1017.4
20210924233149 82 20 0.0 1.0 0.00 0.00 0.00 44 1017.6
20210924231640 83 115 0.0 1.0 0.00 0.00 0.00 43 1017.6
20210924230130 83 219 0.0 2.0 0.00 0.00 0.00 41 1017.5
20210924224609 84 95 0.0 0.0 0.00 0.00 0.00 41 1017.6
20210924223044 84 87 0.0 1.0 0.00 0.00 0.00 40 1017.7
20210924221711 84 43 0.0 1.0 0.00 0.00 0.00 40 1017.7
20210924220115 84 44 0.0 1.0 0.00 0.00 0.00 40 1017.7
20210924214550 85 112 0.0 4.0 0.00 0.00 0.00 40 1017.7
20210924213010 86 126 0.0 2.0 0.00 0.00 0.00 39 1017.7
20210924211510 85 140 0.0 3.0 0.00 0.00 0.00 40 1017.8
20210924210006 85 314 0.0 3.0 0.00 0.00 0.00 41 1017.9
20210924204510 86 142 0.0 2.0 0.00 0.00 0.00 40 1017.9
20210924203004 85 121 0.0 1.0 0.00 0.00 0.00 41 1018.0
20210924201641 85 65 0.0 3.0 0.00 0.00 0.00 40 1018.2
20210924200030 84 159 0.0 7.0 0.00 0.00 0.00 41 1018.3
20210924194545 84 350 0.0 6.0 0.00 0.00 0.00 40 1018.5
20210924193047 85 293 0.0 7.0 0.00 0.00 0.00 39 1018.7
20210924191545 84 76 0.0 8.0 0.00 0.00 0.00 39 1018.9
20210924190027 84 76 0.0 8.0 0.00 0.00 0.00 39 1019.2
20210924184530 84 344 0.0 6.0 0.00 0.00 0.00 40 1019.4
20210924183035 85 66 0.0 7.0 0.00 0.00 0.00 40 1019.6
20210924181511 84 85 0.0 7.0 0.00 0.00 0.00 40 1019.8
20210924180018 84 80 1.0 7.0 0.00 0.00 0.00 40 1019.9
20210924180010 84 98 1.0 7.0 0.00 0.00 0.00 40 1019.9
20210924174508 84 33 1.0 6.0 0.00 0.00 0.00 41 1020.1
20210924173005 83 111 0.0 7.0 0.00 0.00 0.00 42 1020.4
20210924171628 83 319 1.0 5.0 0.00 0.00 0.00 41 1020.5
20210924170134 82 46 0.0 4.0 0.00 0.00 0.00 43 1020.7
20210924164624 82 115 2.0 6.0 0.00 0.00 0.00 41 1021.0
20210924163119 81 40 0.0 7.0 0.00 0.00 0.00 42 1021.0
20210924161625 80 96 1.0 7.0 0.00 0.00 0.00 43 1021.1
20210924160032 79 84 0.0 5.0 0.00 0.00 0.00 43 1021.1
20210924154533 79 41 0.0 7.0 0.00 0.00 0.00 42 1021.2
20210924153008 77 140 0.0 1.0 0.00 0.00 0.00 40 1021.2
20210924150123 75 142 0.0 1.0 0.00 0.00 0.00 33 1021.0
20210924144625 71 120 0.0 0.0 0.00 0.00 0.00 6 1020.9
20210924143131 67 121 0.0 0.0 0.00 0.00 0.00 100 1020.9
20210924141637 65 121 0.0 0.0 0.00 0.00 0.00 100 1020.8
20210924140102 62 121 0.0 0.0 0.00 0.00 0.00 100 1020.7
20210924134513 59 121 0.0 0.0 0.00 0.00 0.00 100 1020.7
20210924133127 57 121 0.0 0.0 0.00 0.00 0.00 100 1020.7
20210924131612 56 121 0.0 0.0 0.00 0.00 0.00 100 1020.7
20210924130129 54 121 0.0 0.0 0.00 0.00 0.00 100 1020.6
20210924124626 54 121 0.0 0.0 0.00 0.00 0.00 100 1020.6
20210924123046 54 121 0.0 0.0 0.00 0.00 0.00 100 1020.5
20210924121505 54 121 0.0 0.0 0.00 0.00 0.00 100 1020.5
20210924120219 54 121 0.0 0.0 0.00 0.00 0.00 100 1020.4
20210924114610 54 121 0.0 0.0 0.00 0.00 0.00 100 1020.2
20210924113043 55 121 0.0 0.0 0.00 0.00 0.00 100 1020.0
20210924111553 55 121 0.0 0.0 0.00 0.00 0.00 100 1019.8
20210924110109 55 121 0.0 0.0 0.00 0.00 0.00 100 1019.7
20210924104555 56 121 0.0 0.0 0.00 0.00 0.00 100 1019.6
20210924103115 56 121 0.0 0.0 0.00 0.00 0.00 100 1019.5
20210924101538 57 121 0.0 0.0 0.00 0.00 0.00 100 1019.2
20210924100025 58 121 0.0 0.0 0.00 0.00 0.00 100 1019.2
20210924094553 58 121 0.0 0.0 0.00 0.00 0.00 100 1019.2
20210924093018 58 121 0.0 0.0 0.00 0.00 0.00 100 1019.2
20210924083103 58 121 0.0 0.0 0.00 0.00 0.00 100 1019.1
20210924081626 58 121 0.0 0.0 0.00 0.00 0.00 100 1019.1
20210924080102 58 121 0.0 0.0 0.00 0.00 0.00 100 1019.2
20210924074520 59 121 0.0 0.0 0.00 0.00 0.00 100 1019.2
20210924073006 59 121 0.0 0.0 0.00 0.00 0.00 100 1019.2
20210924070125 61 121 0.0 0.0 0.00 0.00 0.00 100 1019.2
20210924064634 61 121 0.0 0.0 0.00 0.00 0.00 100 1019.2
20210924063128 61 121 0.0 0.0 0.00 0.00 0.00 100 1019.2